Overview Statistics Trail Chart Weather Telemetry Raw packets
 

This is the latest recevied weather packets stored in our database for station/object WX5KDM. If no packets are shown the sender has not sent any weather packets the latest 10 day(s).

<< 82 83 84 85 86 87 88 >>
Time Temp. Humidity Pressure Rain* Wind** Luminosity Snow
1788020197 31.67° C 58% 1020.3 hPa 0 mm - - -
1788019893 31.11° C 57% 1020.3 hPa 0 mm - - -
1788019592 30.56° C 59% 1020.4 hPa 0 mm - - -
1788019287 31.11° C 57% 1020.4 hPa 0 mm - - -
1788018984 30.56° C 60% 1020.2 hPa 0 mm - - -
1788018680 31.11° C 58% 1020.3 hPa 0 mm - - -
1788018379 31.11° C 58% 1020.4 hPa 0 mm - - -
1788018074 30.56° C 59% 1020.3 hPa 0 mm - - -
1788017770 30° C 62% 1020.3 hPa 0 mm - - -
1788017466 30.56° C 60% 1020.3 hPa 0 mm - - -
1788017164 30.56° C 60% 1020.3 hPa 0 mm - - -
1788016862 30.56° C 62% 1020.4 hPa 0 mm - - -
1788016561 30° C 63% 1020.3 hPa 0 mm - - -
1788016256 29.44° C 63% 1020.4 hPa 0 mm - - -
1788015955 30.56° C 59% 1020.4 hPa 0 mm - - -
1788015650 30° C 62% 1020.3 hPa 0 mm - - -
1788015350 28.33° C 66% 1020.4 hPa 0 mm - - -
1788015050 28.33° C 66% 1020.1 hPa 0 mm - - -
1788014753 28.33° C 68% 1020.1 hPa 0 mm - - -
1788014439 28.33° C 65% 1020.2 hPa 0 mm - - -
1788014133 28.33° C 66% 1020.3 hPa 0 mm - - -
1788013833 27.78° C 72% 1020.4 hPa 0 mm - - -
1788013527 27.78° C 69% 1020.4 hPa 0 mm - - -
1788013227 27.22° C 71% 1020.3 hPa 0 mm - - -
1788012921 27.78° C 71% 1020.4 hPa 0 mm - - -

* Rain latest hour (hover to see other rain measurements)
** Current wind speed in m/s (hover to see current wind gust speed)